Amargosa Valley, NV

9:34 AM PST on February 27, 2017 (GMT -0800)
Mercury

Weather History for KDRA - December, 2013

Change the Weather History Date:

Saturday, December 28, 2013

  Actual Average Record
Temperature  
Mean Temperature 50 °F 43 °F  
Max Temperature 63 °F 54 °F 72 °F (1980)
Min Temperature 37 °F 31 °F 18 °F (1990)
Degree Days  
Heating Degree Days 15    
Cooling Degree Days 0    
Moisture  
Dew Point 13 °F    
Average Humidity 23    
Maximum Humidity 39    
Minimum Humidity 5    
Precipitation  
Precipitation 0.00 in 0.03 in 0.41 in (2004)
Month to date precipitation 0.56  
Year to date precipitation 5.85  
Sea Level Pressure  
Sea Level Pressure 30.02 in    
Wind  
Wind Speed 6 mph (NE)    
Max Wind Speed 24 mph    
Max Gust Speed 32 mph    
Visibility 10 miles    
Events      
T = Trace of Precipitation, MM = Missing Value Source: NWS Daily Summary

Daily Weather History Graph

Daily Weather History Graph

Search for Another Location

Airport or City:

Trip Planner

Search our weather history database for the weather conditions in past years. The results will help you decide how hot, cold, wet, or windy it might be!

Date:

Astronomy

Dec. 28, 2013 Rise Set
Actual Time 6:55 AM PST 4:36 PM PST
Civil Twilight 6:26 AM PST 5:05 PM PST
Nautical Twilight 5:54 AM PST 5:37 PM PST
Astronomical Twilight 5:22 AM PST 6:08 PM PST
Moon 2:40 AM PST (12/28) 1:27 PM PST (12/28)
Length of Visible Light 10h 38m
Length of Day
9h 40m
Waning Crescent, 18% of the Moon is Illuminated
Dec 28
Waning Crescent
Jan 1
New
Jan 7
First Quarter
Jan 15
Full
Jan 23
Last Quarter

Hourly Weather History & Observations

Time (PST) Temp. Windchill Dew Point Humidity Pressure Visibility Wind Dir Wind Speed Gust Speed Precip Events Conditions
12:52 AM 41.0 °F 39.0 °F 12.9 °F 32% 30.06 in 10.0 mi ENE 3.5 mph - N/A   Clear
1:52 AM 42.1 °F 40.2 °F 14.0 °F 32% 30.04 in 10.0 mi North 3.5 mph - N/A   Clear
2:52 AM 39.0 °F 34.8 °F 14.0 °F 36% 30.03 in 10.0 mi SE 5.8 mph - N/A   Clear
3:52 AM 39.0 °F 36.8 °F 14.0 °F 36% 30.02 in 10.0 mi ENE 3.5 mph - N/A   Clear
4:52 AM 39.9 °F - 14.0 °F 35% 30.01 in 10.0 mi Calm Calm - N/A   Clear
5:52 AM 39.0 °F - 16.0 °F 39% 30.04 in 10.0 mi Calm Calm - N/A   Clear
6:52 AM 39.0 °F 36.8 °F 15.1 °F 38% 30.04 in 10.0 mi NNE 3.5 mph - N/A   Clear
7:52 AM 39.0 °F - 15.1 °F 38% 30.05 in 10.0 mi Calm Calm - N/A   Clear
8:52 AM 44.1 °F 41.5 °F 16.0 °F 32% 30.05 in 10.0 mi North 4.6 mph - N/A   Clear
9:52 AM 51.1 °F - 14.0 °F 23% 30.04 in 10.0 mi South 3.5 mph - N/A   Clear
10:52 AM 55.9 °F - 12.0 °F 18% 30.01 in 10.0 mi South 3.5 mph - N/A   Clear
11:52 AM 57.9 °F - 10.0 °F 15% 29.98 in 10.0 mi WSW 5.8 mph - N/A   Clear
12:52 PM 60.1 °F - 8.1 °F 13% 29.95 in 10.0 mi SW 8.1 mph - N/A   Clear
1:52 PM 61.0 °F - 8.1 °F 12% 29.93 in 10.0 mi Variable 3.5 mph - N/A   Clear
2:52 PM 63.0 °F - 8.1 °F 11% 29.94 in 10.0 mi Calm Calm - N/A   Clear
3:52 PM 63.0 °F - 9.0 °F 12% 29.94 in 10.0 mi Variable 3.5 mph - N/A   Clear
4:52 PM 57.9 °F - 5.0 °F 12% 29.96 in 10.0 mi NNE 13.8 mph - N/A   Clear
5:52 PM 55.9 °F - 7.0 °F 14% 29.98 in 10.0 mi NNE 15.0 mph - N/A   Clear
6:52 PM 53.1 °F - 9.0 °F 17% 30.01 in 10.0 mi NNE 15.0 mph - N/A   Clear
7:52 PM 53.1 °F - 10.9 °F 19% 30.03 in 10.0 mi NNE 23.0 mph 29.9 mph N/A   Clear
8:52 PM 50.0 °F - 14.0 °F 24% 30.06 in 10.0 mi NE 18.4 mph - N/A   Clear
9:52 PM 50.0 °F - 17.1 °F 27% 30.07 in 10.0 mi NNE 24.2 mph 32.2 mph N/A   Clear
10:52 PM 48.0 °F - 16.0 °F 28% 30.10 in 10.0 mi ENE 11.5 mph - N/A   Clear
11:52 PM 46.0 °F 38.8 °F 18.0 °F 33% 30.12 in 10.0 mi NE 18.4 mph - N/A   Clear